User: anonymous   Login
Location: Petruro
(41.0333°N, 14.7833°E)
Time: 02:00:53
(UTC+00:00)
Language:

Cosmos 540 Rocket - Orbit

View from above orbital plane
View from above orbital plane
View from above satellite
View from above satellite

Ground track
Ground track

The orbit data is extracted from the following two-line orbital elements,

1  6324U 72104B   21270.79796328 -.00000030  00000-0 -11661-5 0  9997
2  6324  74.0755  87.8956 0009207 190.7449 169.3513 14.43549212561184
Epoch (UTC): 27 September 2021 19:09:04
Eccentricity: 0.0009207
inclination: 74.0755°
perigee height: 740 km
apogee height: 753 km
right ascension of ascending node: 87.8956°
argument of perigee: 190.7449°
revolutions per day: 14.43549212
mean anomaly at epoch: 169.3513°
orbit number at epoch: 56118

The dashed part of the orbit path shows where the satellite is in the earth's shadow,  

DLR